Location: Red Bud (historical)
(37.7759°N, 88.4053°W)
Time: 22:44:19
(UTC+00:00)

Cosmos 1300 - Pass Details

Date: 29 October 2020
Orbit: 511 x 513 km, 82.5° (Epoch: 27 November)

Event Time Altitude Azimuth Distance (km) Brightness Sun altitude
Rises 23:21:36 0° 188° (S) 2,612 6.6 -5.4°
Reaches altitude 10° 23:23:43 10° 190° (S) 1,731 5.7 -5.8°
Maximum altitude 23:27:31 79° 278° (W) 528 2.9 -6.5°
Drops below altitude 10° 23:31:20 10° 5° (N) 1,745 5.2 -7.3°
Sets 23:33:29 0° 6° (N) 2,636 6.1 -7.7°
